Theta_e
322 321 321 321 321 322 322 322 322 322 322 321 322 321 319 319 319 312 301 305 309 316 316 308 306 306 308 307 311 310 299 296 298 299 301 306 305 309 310 309 310 314 314 318 330
320 319 319 319 320 320 321 321 321 321 321 321 321 322 318 318 311 306 309 311 314 317 306 304 302 304 304 304 306 303 297 299 303 305 303 304 305 307 305 307 308 309 314 316 326
318 318 318 318 318 319 320 320 321 320 319 320 320 321 318 316 304 304 309 311 313 314 307 306 305 304 301 305 304 303 298 302 302 303 303 303 302 306 304 304 308 308 311 312 318
316 315 316 316 316 317 317 318 319 320 321 320 320 321 318 311 296 303 310 311 313 309 305 303 302 299 299 299 303 298 301 301 302 302 301 301 303 302 303 306 307 309 309 310 311
313 313 313 314 315 316 316 317 318 319 320 320 320 319 310 302 302 303 311 308 307 305 302 302 300 300 298 299 299 298 299 300 302 300 300 301 299 301 302 306 308 306 304 305 306
310 311 311 312 313 314 314 315 317 318 319 319 319 316 306 299 303 304 303 303 304 303 302 302 301 301 299 297 297 299 298 299 300 299 299 296 299 297 301 303 303 305 304 304 305
309 309 309 310 311 312 313 314 316 318 317 318 318 308 302 303 304 304 303 303 303 304 300 303 304 299 300 297 299 297 294 298 298 298 297 296 294 295 301 300 299 299 300 301 303
309 309 309 309 310 311 311 313 317 317 316 316 312 306 301 303 306 302 304 302 304 305 303 304 304 300 298 298 295 293 293 292 296 295 296 295 294 299 299 298 298 299 300 301 302
309 309 308 309 310 311 312 315 316 313 311 312 306 303 301 304 299 302 302 300 302 303 302 302 302 298 295 293 291 292 291 292 294 295 294 293 295 299 298 298 298 299 301 302 302
308 308 309 309 310 310 313 316 313 310 307 306 302 298 302 298 299 299 301 302 299 300 298 298 297 293 293 292 289 291 289 293 293 293 292 293 293 299 297 297 298 300 302 302 302
305 306 306 307 309 309 313 311 307 305 306 301 302 300 301 299 300 298 300 298 298 296 291 295 290 288 292 293 295 294 294 293 296 292 291 293 294 297 301 299 299 300 301 301 300
303 304 305 306 307 311 312 303 298 297 292 302 303 303 306 300 295 297 300 294 294 290 294 291 288 295 297 295 294 292 291 293 295 292 290 293 293 297 299 300 301 301 301 300 299
303 303 304 306 308 305 306 302 306 301 291 298 302 300 300 299 298 300 297 295 293 291 292 291 294 293 295 292 290 291 291 292 292 291 291 290 291 295 300 299 300 299 297 298 298
303 304 303 303 302 300 302 306 309 302 289 293 295 295 296 297 295 296 298 296 294 291 293 292 296 292 291 291 292 288 295 293 292 289 289 290 287 295 299 297 294 295 295 296 296
303 304 303 303 299 296 302 307 308 302 277 293 293 297 295 294 293 292 296 294 292 293 292 292 290 288 290 292 293 291 291 290 290 289 287 289 286 291 297 296 295 295 295 296 296
302 303 301 301 302 303 305 306 304 286 276 290 291 290 290 292 291 292 292 294 293 292 291 291 290 291 291 288 291 291 289 288 288 287 281 286 287 289 294 295 297 296 294 294 295
301 302 299 302 296 305 306 302 284 278 290 288 288 289 289 288 288 288 288 287 287 283 286 291 289 290 290 286 288 289 287 283 280 279 281 290 285 290 296 296 296 293 293 294 295
300 300 301 302 303 305 303 292 277 285 286 290 291 290 285 290 289 288 286 285 290 288 284 284 283 289 289 289 288 285 287 286 280 282 285 282 280 289 293 295 294 295 294 294 294
299 298 300 299 301 304 293 281 280 284 288 288 288 285 286 288 289 287 287 287 289 289 282 283 284 288 287 290 290 286 283 290 284 276 280 286 287 292 291 290 291 292 293 293 294
294 294 296 299 300 299 287 280 284 288 288 287 281 284 281 285 284 285 286 289 287 291 290 285 281 286 286 288 288 286 289 281 282 278 277 284 285 288 288 288 289 290 291 293 294
293 288 295 298 299 292 280 282 284 288 288 284 282 281 282 282 284 285 285 289 289 288 289 286 284 282 284 283 283 283 282 283 285 284 280 280 285 292 290 292 290 291 292 293 293
289 282 294 298 285 285 281 283 285 283 286 284 284 282 281 283 282 282 283 287 290 288 284 287 283 280 283 287 286 287 284 285 280 279 283 282 284 291 291 293 292 292 292 294 294
285 285 295 294 278 279 282 281 283 281 282 281 281 282 284 281 278 284 285 289 289 288 284 285 281 278 280 283 284 282 284 285 285 284 281 279 283 291 290 291 292 292 293 293 294
286 279 286 288 285 279 277 276 277 283 280 281 280 281 280 277 282 280 282 285 286 286 289 287 282 280 277 280 283 279 283 285 283 279 280 283 286 291 289 288 290 292 293 293 293
286 281 282 276 278 278 278 277 275 274 280 282 278 279 278 276 277 277 281 281 284 286 286 284 278 281 282 283 282 282 281 282 281 282 280 285 286 290 293 290 290 292 293 292 291
283 281 283 279 279 277 277 275 274 275 277 275 276 278 278 276 277 274 278 278 279 283 282 283 278 278 277 280 281 279 282 283 283 284 284 285 285 293 290 290 290 291 291 291 290
290 289 283 279 278 276 276 276 276 278 278 279 278 277 276 278 281 282 283 282 281 279 279 279 278 277 274 277 276 273 277 281 283 285 284 280 286 289 287 287 288 290 290 290 291
Wind_Speed
13 17 18 17 16 16 16 16 17 17 17 17 17 17 15 13 15 7 7 3 2 5 4 4 4 4 6 4 4 2 6 7 5 7 3 5 7 5 2 5 5 5 1 8 11
16 17 19 19 18 18 17 17 17 17 18 18 18 17 15 12 8 9 5 2 3 3 4 7 6 8 5 3 4 7 6 6 4 2 1 3 4 2 5 10 10 8 7 6 10
19 19 18 18 20 21 20 20 17 18 18 17 19 17 12 12 6 2 4 2 4 5 5 4 5 6 6 5 7 5 6 3 3 2 3 3 5 4 6 8 10 11 13 11 11
20 20 21 21 19 19 21 21 21 20 19 18 17 16 13 5 5 3 4 4 4 5 5 3 6 5 7 7 4 5 8 6 1 0 2 6 4 7 11 12 6 4 2 9 11
21 22 22 21 22 23 21 20 22 20 19 18 17 12 7 6 5 3 1 1 4 2 7 7 9 6 7 3 4 9 6 4 5 4 7 8 11 11 13 13 10 5 4 9 10
21 22 22 25 24 23 23 24 21 19 19 19 14 10 6 10 4 2 1 1 1 5 4 6 5 4 5 4 9 2 5 9 6 9 7 7 11 1 4 7 11 13 12 13 14
22 21 21 21 24 26 26 25 22 21 19 13 9 4 6 10 1 2 3 1 1 2 2 2 3 5 2 2 1 1 6 10 11 8 6 3 11 18 15 7 8 9 8 8 8
21 22 24 24 26 25 26 27 23 19 11 5 3 4 8 3 3 2 3 3 2 1 1 2 2 1 2 3 4 4 3 5 7 8 4 6 13 6 4 8 11 10 7 7 8
23 24 26 27 25 28 27 25 22 6 3 1 4 5 7 2 2 1 2 3 4 3 2 3 3 1 3 4 3 7 8 10 6 9 4 11 7 9 6 8 9 10 7 7 8
25 26 27 28 28 28 27 24 5 3 2 3 2 5 5 2 1 0 1 3 2 5 4 5 5 7 7 9 8 8 8 11 10 7 8 10 17 12 9 11 11 11 11 10 11
28 28 30 30 30 28 16 7 5 5 4 10 15 16 8 1 1 3 2 3 3 5 7 6 9 13 17 18 17 7 9 11 5 4 5 14 17 18 14 16 16 16 14 11 11
28 29 31 31 32 19 7 6 5 4 14 16 21 17 15 3 4 7 5 9 8 13 10 5 16 17 10 9 14 13 13 13 11 4 4 13 19 19 19 17 18 17 15 11 9
28 29 30 31 26 6 8 10 6 4 7 13 4 6 2 6 7 8 10 5 10 15 15 18 3 1 12 10 13 15 16 12 7 3 11 9 17 18 18 9 14 11 11 9 10
28 29 29 31 6 12 4 12 9 3 6 5 3 2 2 3 5 2 4 5 7 11 15 15 20 8 8 14 13 14 12 14 10 3 5 2 11 13 6 10 11 12 11 11 10
29 29 30 15 9 7 9 13 12 5 8 5 3 3 1 4 3 3 1 3 14 9 6 6 5 11 16 17 12 6 2 7 8 7 2 8 5 6 7 13 15 14 12 10 10
29 29 26 5 4 9 14 15 6 4 9 3 3 3 3 4 2 2 4 4 3 9 13 18 2 5 4 3 7 11 8 6 3 4 7 10 10 24 17 18 15 14 11 11 12
29 27 10 6 8 14 12 6 3 6 10 5 4 4 7 4 3 3 4 7 7 5 12 15 21 7 6 6 5 12 11 4 6 7 11 4 11 20 4 6 7 14 14 13 13
29 20 5 5 10 12 6 2 7 2 4 4 6 11 6 3 5 3 4 9 14 14 9 7 7 20 16 17 11 18 14 9 11 11 11 3 11 9 1 2 4 11 13 14 15
25 7 3 8 13 8 3 5 5 7 9 11 17 15 16 5 6 4 10 16 7 14 9 5 8 5 4 6 9 11 15 12 3 1 4 7 10 12 8 7 8 13 16 17 17
10 5 3 13 14 6 1 5 5 10 14 14 13 12 19 16 3 2 4 2 4 6 10 6 9 5 6 5 7 7 2 7 3 7 8 9 7 11 10 13 13 16 17 17 17
5 4 7 15 6 3 3 5 8 13 14 11 16 20 21 22 22 15 8 5 2 2 12 9 7 2 1 10 13 8 7 6 4 9 4 6 4 7 4 11 16 17 17 18 17
5 4 9 10 4 2 5 9 16 18 19 18 18 21 21 20 19 22 8 8 4 5 4 2 5 5 6 2 5 11 13 16 7 5 10 4 6 3 5 4 12 14 15 16 16
6 4 3 8 5 6 9 14 16 16 12 12 15 16 22 23 13 11 9 16 12 6 3 1 4 4 5 3 3 7 12 14 12 3 8 7 8 4 3 5 9 12 12 13 14
4 4 2 3 7 9 13 14 12 14 18 16 18 17 11 16 18 12 13 4 14 9 15 5 6 9 9 7 3 4 11 15 15 6 11 14 15 10 5 3 8 10 12 13 12
2 2 3 5 6 14 14 17 19 20 19 18 18 15 15 9 12 10 7 14 8 2 6 4 8 11 15 16 13 11 8 10 15 18 9 13 19 18 12 4 10 5 8 11 12
3 3 1 9 10 13 14 13 19 16 11 14 19 20 19 12 10 17 11 13 8 8 12 6 7 8 15 14 14 17 17 16 18 21 20 23 23 15 2 5 3 9 11 8 10
2 3 3 5 9 10 12 15 19 21 17 17 21 22 20 20 19 17 14 16 17 18 16 8 5 4 10 8 5 9 19 21 20 20 20 20 20 7 6 7 8 7 9 11 9
Wind_Direction
17 12 0 355 351 346 341 339 337 338 335 336 337 333 326 321 304 222 243 54 336 332 293 256 212 186 206 199 232 282 250 243 234 219 122 149 206 164 47 256 203 175 295 98 137
18 12 3 357 353 348 345 339 335 332 330 330 331 331 332 328 286 250 91 357 299 281 241 222 185 182 191 197 208 232 245 248 23 358 171 140 250 199 229 205 216 198 150 149 159
10 6 4 359 352 349 346 341 335 330 328 326 325 326 326 311 276 112 108 327 290 267 263 257 273 218 227 206 195 186 253 18 196 297 309 262 244 218 241 234 236 210 193 181 183
11 4 357 353 349 345 340 336 331 327 323 322 322 321 317 274 297 91 16 328 282 254 235 208 203 209 230 215 183 250 250 260 343 137 251 242 301 248 238 247 44 13 88 183 196
11 2 355 351 344 339 336 332 327 323 319 318 318 320 298 264 267 118 328 220 207 215 237 214 216 223 227 225 199 235 257 263 258 238 263 273 257 262 263 246 260 210 222 230 225
10 360 355 346 342 337 331 327 324 318 314 311 311 307 266 267 114 98 354 51 288 234 217 221 248 240 258 219 229 23 269 268 262 257 250 258 269 309 216 214 243 239 246 238 236
7 359 353 351 341 336 329 322 317 315 312 305 295 286 268 276 57 130 174 223 203 233 239 272 286 223 159 213 155 295 274 248 234 231 247 243 256 232 241 180 191 198 222 230 223
6 356 350 346 340 334 326 316 310 309 308 312 252 267 257 59 341 205 181 155 149 168 156 134 247 188 267 136 184 231 234 249 120 183 171 210 257 140 160 202 222 206 197 201 211
360 356 351 345 339 332 323 311 306 296 298 241 247 253 265 119 225 147 254 234 151 124 91 151 208 193 172 218 229 207 253 217 211 200 165 208 272 112 173 199 194 203 221 224 227
356 351 347 344 340 332 320 307 289 233 213 208 242 257 187 327 89 191 29 192 216 151 158 199 210 218 211 198 217 228 229 239 243 164 215 219 250 257 191 215 221 235 249 248 240
356 352 345 338 337 330 326 312 322 196 353 296 292 280 280 80 251 208 157 177 178 223 217 202 217 218 214 218 241 295 261 255 206 129 246 239 253 265 263 216 242 249 246 235 243
354 350 345 337 333 324 346 46 44 306 298 277 264 255 258 282 258 209 184 199 204 219 198 191 232 234 237 272 231 238 253 260 273 159 245 269 266 264 261 252 246 253 255 236 221
355 350 345 340 329 348 44 36 339 324 268 299 258 270 262 214 242 236 189 219 225 228 209 230 203 322 202 213 215 229 236 234 238 215 229 283 271 254 252 240 247 244 252 248 232
352 347 346 338 315 336 26 346 328 306 290 268 147 116 212 255 221 11 262 261 219 250 227 253 253 206 202 231 216 244 224 240 248 221 246 293 285 271 251 223 214 224 216 221 208
350 344 343 339 318 348 333 327 314 249 311 49 85 5 277 253 22 137 156 235 246 217 199 221 202 210 229 234 201 247 119 208 227 234 358 195 258 250 243 235 226 214 213 200 187
345 342 339 4 302 349 319 314 274 254 243 351 5 356 259 219 212 126 190 224 322 258 241 264 360 236 229 78 217 131 122 113 142 142 240 189 199 271 244 232 228 190 191 183 173
340 339 355 326 345 324 316 294 296 238 339 329 357 346 330 295 256 243 216 205 226 217 235 236 230 189 187 142 160 193 171 175 205 196 239 156 197 249 321 308 283 176 183 176 167
336 334 350 30 333 326 308 306 239 3 294 348 326 309 267 232 236 234 285 266 228 252 291 244 228 200 204 223 192 202 200 223 244 234 240 142 225 257 343 48 206 177 172 166 166
330 352 352 4 349 320 320 233 286 339 354 333 317 282 283 260 279 270 255 258 261 203 221 255 241 136 230 216 212 184 224 253 274 172 282 223 243 272 164 185 194 173 170 171 168
333 330 21 340 331 303 229 266 295 349 333 328 303 294 292 292 269 285 237 145 258 274 356 294 273 203 161 206 229 238 294 185 191 222 231 236 254 247 203 198 189 184 180 172 167
348 349 26 335 312 267 248 265 315 321 328 325 316 307 298 297 299 286 268 212 321 175 160 192 223 100 168 218 192 187 215 223 275 230 247 267 223 37 16 202 195 188 184 174 169
350 344 9 332 360 19 322 333 315 316 319 306 295 285 289 302 294 282 268 268 129 75 303 303 313 265 206 36 342 263 232 213 215 222 245 310 283 37 5 241 185 186 183 172 171
349 304 337 323 27 341 320 313 312 313 354 331 298 341 312 293 289 299 304 346 41 342 198 105 231 256 189 222 178 213 225 241 244 37 238 217 253 50 62 152 178 177 178 166 173
335 322 352 351 2 352 329 312 326 322 315 308 299 303 328 318 301 297 289 286 332 306 282 266 233 239 273 349 41 205 231 220 218 210 234 229 259 283 60 151 180 183 184 175 176
334 343 357 312 328 317 310 306 305 303 305 306 302 292 303 280 307 282 328 324 310 304 301 315 246 256 267 280 289 266 271 223 216 236 237 243 246 251 278 194 218 198 181 180 184
284 284 278 283 286 302 308 302 303 312 322 314 310 320 312 294 307 314 327 329 310 332 339 325 290 328 266 263 254 260 260 257 233 229 235 253 267 283 334 340 207 198 181 191 203
233 260 244 268 281 286 288 293 299 308 299 291 287 295 295 295 302 302 298 296 282 286 289 286 294 289 271 335 223 242 232 245 253 243 245 249 257 264 243 242 228 227 207 216 207